Storm Lake, IA

8:48 AM CDT on April 19, 2018 (GMT -0500)
Storm Lake Municipal

Weather History for KSLB - August, 2012

Change the Weather History Date:

Wednesday, August 22, 2012

  Actual Average Record
Temperature  
Mean Temperature 72 °F -  
Max Temperature 89 °F 78 °F 91 °F (1998)
Min Temperature 55 °F 61 °F 53 °F (1997)
Cooling Degree Days 7    
Growing Degree Days 22 (Base 50)    
Moisture  
Dew Point 55 °F    
Average Humidity 59    
Maximum Humidity 88    
Minimum Humidity 26    
Precipitation  
Precipitation 0.00 in - - ()
Sea Level Pressure  
Sea Level Pressure 29.95 in    
Wind  
Wind Speed 10 mph (South)    
Max Wind Speed 21 mph    
Max Gust Speed 30 mph    
Visibility 10 miles    
Events      
Averages and records for this station are not official NWS values.
T = Trace of Precipitation, MM = Missing Value Source: NWS Daily Summary

Daily Weather History Graph

Daily Weather History Graph

Search for Another Location

Airport or City:

Astronomy

Aug. 22, 2012 Rise Set
Actual Time 6:35 AM CDT 8:10 PM CDT
Civil Twilight 6:05 AM CDT 8:40 PM CDT
Nautical Twilight 5:29 AM CDT 9:16 PM CDT
Astronomical Twilight 4:51 AM CDT 9:54 PM CDT
Moon 12:25 PM CDT (8/22) 10:43 PM CDT (8/22)
Length of Visible Light 14h 34m
Length of Day
13h 35m
Waxing Crescent, 29% of the Moon is Illuminated
Aug 22
Waxing Crescent
Aug 24
First Quarter
Aug 31
Full
Sep 8
Last Quarter
Sep 15
New

Hourly Weather History & Observations

Time (CDT) Temp. Heat Index Dew Point Humidity Pressure Visibility Wind Dir Wind Speed Gust Speed Precip Events Conditions
12:15 AM 62.6 °F - 51.8 °F 68% 30.00 in 10.0 mi SE 10.4 mph - N/A   Clear
12:35 AM 62.6 °F - 51.8 °F 68% 30.00 in 10.0 mi SE 10.4 mph - N/A   Clear
12:55 AM 60.8 °F - 53.6 °F 77% 30.00 in 10.0 mi SSE 10.4 mph - N/A   Clear
1:15 AM 60.8 °F - 53.6 °F 77% 30.00 in 10.0 mi SSE 11.5 mph - N/A   Clear
1:35 AM 60.8 °F - 51.8 °F 72% 29.99 in 10.0 mi SSE 10.4 mph - N/A   Clear
1:55 AM 60.8 °F - 51.8 °F 72% 29.99 in 10.0 mi SE 10.4 mph - N/A   Clear
2:15 AM 59.0 °F - 51.8 °F 77% 29.99 in 10.0 mi SE 10.4 mph - N/A   Clear
2:35 AM 59.0 °F - 51.8 °F 77% 29.99 in 10.0 mi SE 9.2 mph - N/A   Clear
2:55 AM 59.0 °F - 51.8 °F 77% 29.98 in 10.0 mi SSE 8.1 mph - N/A   Clear
3:15 AM 59.0 °F - 51.8 °F 77% 29.98 in 10.0 mi SE 9.2 mph - N/A   Clear
3:35 AM 57.2 °F - 51.8 °F 82% 29.98 in 10.0 mi SE 8.1 mph - N/A   Clear
3:55 AM 57.2 °F - 51.8 °F 82% 29.98 in 10.0 mi SE 8.1 mph - N/A   Clear
4:15 AM 57.2 °F - 51.8 °F 82% 29.98 in 10.0 mi SE 8.1 mph - N/A   Clear
4:35 AM 57.2 °F - 51.8 °F 82% 29.98 in 10.0 mi SSE 8.1 mph - N/A   Clear
4:55 AM 55.4 °F - 51.8 °F 88% 29.98 in 10.0 mi SSE 6.9 mph - N/A   Clear
5:15 AM 55.4 °F - 51.8 °F 88% 29.97 in 10.0 mi SSE 6.9 mph - N/A   Clear
5:35 AM 55.4 °F - 51.8 °F 88% 29.97 in 10.0 mi SSE 6.9 mph - N/A   Clear
5:55 AM 57.2 °F - 51.8 °F 82% 29.97 in 10.0 mi SSE 5.8 mph - N/A   Clear
6:15 AM 57.2 °F - 51.8 °F 82% 29.97 in 10.0 mi SSE 5.8 mph - N/A   Clear
6:35 AM 57.2 °F - 51.8 °F 82% 29.98 in 10.0 mi SSE 6.9 mph - N/A   Clear
6:55 AM 57.2 °F - 53.6 °F 88% 29.98 in 10.0 mi SSE 6.9 mph - N/A   Clear
7:15 AM 57.2 °F - 51.8 °F 82% 29.97 in 10.0 mi South 5.8 mph - N/A   Clear
7:35 AM 57.2 °F - 53.6 °F 88% 29.98 in 10.0 mi South 5.8 mph - N/A   Clear
7:55 AM 59.0 °F - 53.6 °F 82% 29.99 in 10.0 mi Calm Calm - N/A   Clear
8:15 AM 60.8 °F - 53.6 °F 77% 29.99 in 10.0 mi Calm Calm - N/A   Clear
8:35 AM 60.8 °F - 55.4 °F 82% 29.99 in 10.0 mi SSE 3.5 mph - N/A   Clear
8:55 AM 62.6 °F - 55.4 °F 77% 29.99 in 10.0 mi SE 4.6 mph - N/A   Clear
9:15 AM 64.4 °F - 57.2 °F 77% 29.99 in 10.0 mi South 4.6 mph - N/A   Clear
9:35 AM 66.2 °F - 57.2 °F 73% 29.98 in 10.0 mi South 4.6 mph - N/A   Clear
9:55 AM 68.0 °F - 57.2 °F 68% 29.99 in 10.0 mi South 6.9 mph - N/A   Clear
10:15 AM 71.6 °F - 59.0 °F 64% 29.98 in 10.0 mi SSW 8.1 mph - N/A   Clear
10:35 AM 75.2 °F - 60.8 °F 61% 29.99 in 10.0 mi SSW 5.8 mph 11.5 mph N/A   Clear
10:55 AM 80.6 °F 81.1 °F 59.0 °F 48% 29.98 in 10.0 mi SW 11.5 mph - N/A   Clear
11:15 AM 84.2 °F 83.8 °F 59.0 °F 42% 29.98 in 10.0 mi SW 13.8 mph 20.7 mph N/A   Clear
11:35 AM 86.0 °F 85.4 °F 59.0 °F 40% 29.97 in 10.0 mi SW 12.7 mph 20.7 mph N/A   Clear
11:55 AM 86.0 °F 84.9 °F 57.2 °F 37% 29.97 in 10.0 mi SSW 17.3 mph - N/A   Clear
12:15 PM 87.8 °F 86.1 °F 55.4 °F 33% 29.96 in 10.0 mi SSW 15.0 mph 24.2 mph N/A   Clear
12:35 PM 89.6 °F 87.3 °F 53.6 °F 29% 29.95 in 10.0 mi SSW 18.4 mph 25.3 mph N/A   Clear
12:55 PM 89.6 °F - 50.0 °F 26% 29.95 in 10.0 mi SSW 18.4 mph 24.2 mph N/A   Clear
1:15 PM 89.6 °F - 51.8 °F 27% 29.95 in 10.0 mi South 16.1 mph 25.3 mph N/A   Clear
1:35 PM 89.6 °F - 50.0 °F 26% 29.94 in 10.0 mi SSW 17.3 mph 26.5 mph N/A   Clear
1:55 PM 89.6 °F - 51.8 °F 27% 29.94 in 10.0 mi SSW 20.7 mph 27.6 mph N/A   Clear
2:15 PM 89.6 °F 87.3 °F 53.6 °F 29% 29.93 in 10.0 mi SSW 20.7 mph 28.8 mph N/A   Clear
2:55 PM 89.6 °F 87.3 °F 53.6 °F 29% 29.93 in 10.0 mi SSW 16.1 mph 25.3 mph N/A   Clear
3:15 PM 89.6 °F 87.7 °F 55.4 °F 31% 29.92 in 10.0 mi SSW 15.0 mph 29.9 mph N/A   Clear
3:35 PM 87.8 °F 86.5 °F 57.2 °F 35% 29.92 in 10.0 mi SSW 16.1 mph 24.2 mph N/A   Clear
3:55 PM 87.8 °F 86.1 °F 55.4 °F 33% 29.92 in 10.0 mi SSW 16.1 mph 23.0 mph N/A   Clear
4:15 PM 87.8 °F 86.5 °F 57.2 °F 35% 29.92 in 10.0 mi SSW 13.8 mph 23.0 mph N/A   Clear
4:35 PM 89.6 °F 88.1 °F 57.2 °F 33% 29.91 in 10.0 mi SW 18.4 mph 25.3 mph N/A   Clear
4:55 PM 87.8 °F 86.1 °F 55.4 °F 33% 29.91 in 10.0 mi SSW 18.4 mph 26.5 mph N/A   Clear
5:15 PM 87.8 °F 86.5 °F 57.2 °F 35% 29.90 in 10.0 mi SSW 15.0 mph 25.3 mph N/A   Clear
5:35 PM 86.0 °F 84.9 °F 57.2 °F 37% 29.90 in 10.0 mi South 13.8 mph - N/A   Clear
5:55 PM 87.8 °F 86.1 °F 55.4 °F 33% 29.90 in 10.0 mi SSW 12.7 mph 19.6 mph N/A   Clear
6:15 PM 86.0 °F 84.5 °F 55.4 °F 35% 29.90 in 10.0 mi SSW 15.0 mph 20.7 mph N/A   Clear
6:35 PM 84.2 °F 83.5 °F 57.2 °F 40% 29.90 in 10.0 mi SW 10.4 mph 16.1 mph N/A   Clear
6:55 PM 84.2 °F 83.0 °F 55.4 °F 37% 29.90 in 10.0 mi SSW 9.2 mph 16.1 mph N/A   Clear
7:15 PM 82.4 °F 81.7 °F 55.4 °F 39% 29.90 in - SSW 10.4 mph 17.3 mph N/A   Clear
7:35 PM 80.6 °F 80.8 °F 57.2 °F 45% 29.90 in 10.0 mi SSW 8.1 mph - N/A   Clear
7:55 PM 78.8 °F - 57.2 °F 47% 29.89 in 10.0 mi SSW 8.1 mph - N/A   Clear
8:15 PM 75.2 °F - 57.2 °F 53% 29.89 in 10.0 mi South 6.9 mph - N/A   Clear
8:35 PM 75.2 °F - 57.2 °F 53% 29.89 in 10.0 mi South 6.9 mph - N/A   Clear
8:55 PM 73.4 °F - 57.2 °F 57% 29.90 in 10.0 mi South 9.2 mph - N/A   Clear
9:15 PM 73.4 °F - 57.2 °F 57% 29.90 in 10.0 mi South 8.1 mph - N/A   Clear
9:35 PM 71.6 °F - 59.0 °F 64% 29.91 in 10.0 mi South 6.9 mph - N/A   Clear
9:55 PM 68.0 °F - 59.0 °F 73% 29.91 in 10.0 mi SSE 9.2 mph - N/A   Clear
10:15 PM 68.0 °F - 59.0 °F 73% 29.91 in 10.0 mi SSE 9.2 mph - N/A   Clear
10:35 PM 66.2 °F - 59.0 °F 78% 29.91 in 10.0 mi SSE 9.2 mph - N/A   Clear
11:15 PM 66.2 °F - 57.2 °F 73% 29.91 in 10.0 mi South 9.2 mph - N/A   Clear
11:35 PM 66.2 °F - 57.2 °F 73% 29.92 in 10.0 mi South 8.1 mph - N/A   Clear
11:55 PM 68.0 °F - 57.2 °F 68% 29.91 in 10.0 mi South 9.2 mph - N/A   Clear